Weather History for KEED - July, 2013

Change the Weather History Date:

Friday, July 5, 2013

  Actual Average Record
Temperature  
Mean Temperature 100 °F -  
Max Temperature 109 °F 109 °F 121 °F (1989)
Min Temperature 91 °F 82 °F 69 °F (1956)
Cooling Degree Days 35    
Growing Degree Days 50 (Base 50)    
Moisture  
Dew Point 52 °F    
Average Humidity 20    
Maximum Humidity 29    
Minimum Humidity 12    
Precipitation  
Precipitation 0.00 in - - ()
Sea Level Pressure  
Sea Level Pressure 29.56 in    
Wind  
Wind Speed 11 mph (SSW)    
Max Wind Speed 22 mph    
Max Gust Speed 29 mph    
Visibility 10 miles    
Events      
Averages and records for this station are not official NWS values.
T = Trace of Precipitation, MM = Missing Value Source: NWS Daily Summary

Daily Weather History Graph

Daily Weather History Graph

Search for Another Location

Airport or City:

Trip Planner

Search our weather history database for the weather conditions in past years. The results will help you decide how hot, cold, wet, or windy it might be!

Date:

Astronomy

Jul. 05, 2013 Rise Set
Actual Time 5:30 AM PDT 7:55 PM PDT
Civil Twilight 5:01 AM PDT 8:24 PM PDT
Nautical Twilight 4:25 AM PDT 9:00 PM PDT
Astronomical Twilight 3:45 AM PDT 9:40 PM PDT
Moon 3:31 AM PDT (7/5) 5:55 PM PDT (7/5)
Length of Visible Light 15h 23m
Length of Day
14h 24m
Waning Crescent, 6% of the Moon is Illuminated
Jul 5
Waning Crescent
Jul 8
New
Jul 15
First Quarter
Jul 22
Full
Jul 29
Last Quarter

Hourly Weather History & Observations

Time (PDT) Temp. Heat Index Dew Point Humidity Pressure Visibility Wind Dir Wind Speed Gust Speed Precip Events Conditions
12:56 AM 98.1 °F 97.7 °F 59.0 °F 27% 29.54 in 10.0 mi SW 9.2 mph - N/A   Clear
1:56 AM 96.1 °F 95.6 °F 59.0 °F 29% 29.53 in 10.0 mi SW 15.0 mph - N/A   Clear
2:56 AM 96.1 °F 95.2 °F 57.9 °F 28% 29.53 in 10.0 mi South 4.6 mph - N/A   Clear
3:56 AM 95.0 °F 93.7 °F 57.0 °F 28% 29.54 in 10.0 mi SSW 5.8 mph - N/A   Clear
4:56 AM 93.0 °F 90.8 °F 54.0 °F 27% 29.55 in 10.0 mi WSW 9.2 mph - N/A   Clear
5:56 AM 91.9 °F 89.5 °F 54.0 °F 27% 29.57 in 10.0 mi WSW 9.2 mph - N/A   Clear
6:56 AM 93.9 °F 91.4 °F 53.1 °F 25% 29.59 in 10.0 mi SW 10.4 mph - N/A   Clear
7:56 AM 97.0 °F 94.6 °F 53.1 °F 23% 29.61 in 10.0 mi South 4.6 mph - N/A   Clear
8:56 AM 99.0 °F 96.9 °F 54.0 °F 22% 29.62 in 10.0 mi Variable 4.6 mph - N/A   Clear
9:56 AM 102.0 °F 99.7 °F 53.1 °F 19% 29.61 in 10.0 mi South 11.5 mph - N/A   Clear
10:56 AM 102.9 °F 100.9 °F 53.1 °F 19% 29.62 in 10.0 mi SSW 21.9 mph 26.5 mph N/A   Clear
11:56 AM 102.0 °F - 52.0 °F 19% 29.62 in 10.0 mi South 19.6 mph 26.5 mph N/A   Clear
12:56 PM 105.1 °F - 51.1 °F 16% 29.61 in 10.0 mi SSW 17.3 mph 25.3 mph N/A   Clear
1:56 PM 106.0 °F - 48.9 °F 15% 29.59 in 10.0 mi SSW 8.1 mph 24.2 mph N/A   Clear
2:56 PM 107.1 °F - 46.0 °F 13% 29.56 in 10.0 mi South 17.3 mph 23.0 mph N/A   Clear
3:56 PM 108.0 °F - 45.0 °F 12% 29.52 in 10.0 mi SSW 17.3 mph 25.3 mph N/A   Clear
4:56 PM 109.0 °F - 46.9 °F 13% 29.51 in 10.0 mi SSW 16.1 mph 28.8 mph N/A   Clear
5:56 PM 108.0 °F - 46.9 °F 13% 29.51 in 10.0 mi SSW 19.6 mph - N/A   Clear
6:56 PM 106.0 °F - 48.0 °F 14% 29.51 in 10.0 mi SSW 19.6 mph 24.2 mph N/A   Clear
7:56 PM 102.0 °F 100.6 °F 55.0 °F 21% 29.51 in 10.0 mi SSW 17.3 mph - N/A   Clear
8:56 PM 100.9 °F 98.7 °F 53.1 °F 20% 29.52 in 10.0 mi SSW 15.0 mph - N/A   Clear
9:56 PM 99.0 °F - 52.0 °F 21% 29.54 in 10.0 mi South 10.4 mph - N/A   Clear
10:56 PM 98.1 °F - 48.9 °F 19% 29.55 in 10.0 mi SSW 11.5 mph - N/A   Clear
11:56 PM 97.0 °F - 50.0 °F 20% 29.57 in 10.0 mi SSW 9.2 mph - N/A   Clear